Погода в Раскильдином

Россия / Чувашская Республика     55°41′08″N   46°34′38″E
темп.,
°C
ветер,
м/с
пор.,
м/с
влажн.,
%
обл.,
%
осадки,
мм/ч
давл.,
гПа
погр.,
м
23 апреля, пт
пт2300:00+6ю228765 0.0 102336
03:00+4ю33885 0.0 102332
06:00+5ююв35845 0.0 1024110
09:00+11ю46635 0.0 1024544
12:00+14ю554636 0.0 10231883
15:00+15ююв354177 0.0 10212001
18:00+12юв596596 0.0 1020322
21:00+10юв4976100 0.1 1020208
24 апреля, сб
сб2400:00+9юв4983100 0.1 1018219
03:00+7вюв3786100 0.1 1017152
06:00+7в3885100 0.0 1015205
09:00+10вюв6873100 0.0 1014558
12:00+12вюв5663100 0.0 10111240
15:00+10вюв7874100 0.2 1009832
18:00+8вюв7983100 0.0 1008542
21:00+6вюв6129497 0.0 1005388
25 апреля, вс
вс2500:00+6юв61196100 1.6 1002469
03:00+3зюз61195100 4.4 1002912
06:00+4зюз71293100 0.4 10021088
09:00+3зюз91694100 0.9 10021245
12:00+7зюз111769100 0.6 10041858
15:00+8з11175798 0.8 10072277
18:00+6зюз9156183 0.3 10081499
21:00+4зюз81571100 0.8 1010742
26 апреля, пн
пн2600:00+3зюз816725 0.0 1011698
03:00+2зюз715805 0.0 1012566
06:00+2юз612816 0.0 1013536
09:00+6юз8116890 0.0 10131451
12:00+6зюз8107371 0.3 10131186
15:00+7зюз5759100 0.4 10141527
18:00+7ююз356333 0.0 1013164
21:00+3ююв336979 0.0 101225
27 апреля, вт
вт2700:00+4вюв2371100 0.0 101048
03:00+4юв3981100 0.1 1008306
06:00+4ю51182100 0.4 1005688
09:00+2з61196100 1.6 1007665
12:00+5зюз698077 0.3 1007958
15:00+7зсз5761100 0.6 10071327
18:00+6юз2369100 0.0 1007107
21:00+2з498761 0.6 1009223